Location: Caualo
(45.5667°N, 10.8667°E)
Time: 10:27:26
(UTC+00:00)

In-Cosmos 22 Rocket - Pass Details

Date: 01 October 2020
Orbit: 790 x 889 km, 81.2° (Epoch: 20 October)

Event Time Altitude Azimuth Distance (km) Brightness Sun altitude
Rises 19:37:53 0° 0° (N) 3,338 7.6 -28.4°
Reaches altitude 10° 19:40:57 10° 17° (NNE) 2,388 6.6 -28.8°
Enters shadow 19:41:54 13° 26° (NNE) 2,146 6.3 -29.0°
